カタログに戻る

CZ-6A DEB

運用中PO
NORAD 60689·DEBRIS·🇨🇳 China

打ち上げ Aug 6, 2024 から Taiyuan Satellite Launch Center

Loading…

次のパス (今後24時間)

TLE

最新Source: Space-Track

元期: Sep 14, 2026, 07:40 UTC

1 60689U 24140CS  26257.31973428  .00000631  00000-0  26317-3 0  9991
2 60689  88.9936 263.7903 0027103 266.1690  93.6404 14.24916424109011

AllMySatでCZ-6A DEBをリアルタイム追跡

Download on the App Store